Dewpoint
67 67 68 68 69 70 70 70 70 70 70 70 70 70 70 69 69 69 69 69 69 69 69 69 69 69 68 68 68 68 67 67 67 67 67 67 67 67 67 67 67 67 67 67 67 68 69 63 58 56 57 58 60 62 63 64 64 64 64 64 65 66 67 69 70 71 71 71 70 69 68 68 68 67 67 67 67 67 66 66 66 65 65 65 65 65 64 64 64 64 64 64 64 63 63 63 63 63 62 62 63 63 63
67 67 68 68 69 69 70 70 70 69 69 69 69 69 69 69 69 69 69 69 69 68 69 69 69 69 68 68 68 68 68 67 67 67 67 67 67 67 67 67 67 67 67 67 67 68 68 61 57 55 55 57 58 60 62 63 64 63 63 63 64 65 66 68 69 70 70 69 69 68 68 68 67 67 67 67 66 66 66 65 65 64 64 64 64 64 64 63 63 63 63 63 63 63 62 62 62 62 62 62 62 62 62
67 67 68 68 69 69 69 69 69 69 69 69 69 69 68 68 68 68 68 68 68 68 68 68 68 68 68 68 68 68 68 67 67 67 67 67 67 67 67 67 67 67 67 67 67 68 67 62 57 54 54 54 56 57 59 61 62 62 62 63 64 65 66 67 68 69 69 68 68 68 67 67 67 67 66 66 65 65 65 64 64 63 63 63 63 63 63 62 62 62 62 62 62 62 62 62 62 62 62 62 62 62 62
67 67 68 68 69 69 69 69 69 69 69 69 68 68 68 68 68 68 68 68 68 68 68 68 68 68 68 68 68 68 68 68 68 68 67 67 67 67 67 67 67 67 67 67 68 67 59 58 56 54 53 53 54 55 57 58 59 60 62 62 63 64 66 67 67 67 68 68 67 67 67 67 66 66 65 65 64 64 64 63 63 62 62 62 62 62 62 62 62 62 62 62 62 62 62 62 62 62 62 62 62 62 62
67 67 68 68 69 69 69 69 69 69 68 68 68 68 68 68 68 68 68 68 68 68 68 68 68 68 68 68 68 68 68 68 68 68 68 67 67 67 67 67 67 67 67 67 68 66 59 57 55 54 53 53 53 53 55 57 58 59 60 62 63 65 67 67 67 67 67 67 67 67 66 66 65 65 64 64 63 63 62 62 62 62 62 62 62 62 62 62 62 61 61 61 61 61 61 62 62 62 62 62 62 62 62
67 67 68 68 68 69 69 68 68 68 68 68 68 68 68 68 68 68 68 68 68 68 68 68 68 68 68 68 68 68 68 68 68 68 68 67 67 67 67 67 67 67 67 67 68 66 61 55 53 53 53 53 53 54 55 56 57 58 59 61 63 65 67 67 67 67 67 67 66 66 66 65 65 64 63 63 62 62 62 62 62 61 61 61 61 61 61 61 61 61 61 61 61 61 61 62 62 62 62 62 62 62 62
67 67 68 68 68 68 68 68 68 68 68 68 68 68 68 68 68 68 68 68 68 68 68 68 69 69 69 69 69 69 69 69 69 68 68 67 67 67 67 67 67 67 67 67 68 67 63 55 53 53 54 54 54 54 55 57 58 58 58 61 64 66 67 67 67 67 67 66 66 66 65 65 64 63 63 62 62 62 61 61 61 61 61 61 61 61 61 61 61 61 61 60 61 61 61 61 62 62 62 62 62 62 62
67 67 67 68 68 68 68 68 68 68 68 68 68 68 68 68 68 68 69 69 69 69 69 69 69 69 69 69 69 69 69 69 69 68 68 67 67 67 67 67 67 67 67 67 67 67 66 57 53 53 53 54 55 55 56 58 59 60 61 62 64 66 66 66 66 66 66 66 66 65 65 64 64 63 62 62 62 61 61 61 61 61 61 61 62 61 61 61 61 61 60 60 60 60 61 61 61 62 62 62 62 62 62
67 67 67 68 68 68 68 68 68 68 68 68 68 68 68 68 68 69 69 69 69 69 69 70 70 70 70 70 69 69 69 69 68 68 68 67 67 67 67 67 67 67 67 67 67 67 67 58 54 53 53 54 55 56 58 58 60 61 62 63 64 65 66 66 66 66 66 65 65 65 64 64 63 62 62 62 61 61 60 60 61 61 61 61 61 61 61 61 61 60 60 60 60 60 60 60 61 61 61 62 62 62 61
67 67 67 68 68 69 68 68 68 68 68 68 68 68 68 68 68 68 69 69 70 70 70 70 70 70 70 70 69 69 69 69 68 68 67 67 67 67 67 67 67 67 67 67 67 66 66 58 54 53 54 55 56 57 58 59 60 62 63 64 65 65 66 66 66 65 65 65 65 64 64 63 63 62 62 61 61 61 60 60 60 60 61 61 61 61 61 60 60 60 60 60 60 60 60 60 60 60 61 61 61 61 61
67 67 67 68 68 68 68 68 68 68 68 68 68 68 68 68 68 68 69 69 69 70 70 70 70 70 69 69 69 69 69 68 68 68 67 67 67 67 67 67 67 66 66 66 66 66 65 59 54 53 54 56 57 58 58 59 60 62 63 65 66 66 66 65 65 65 65 65 64 64 63 63 62 62 62 61 61 60 60 60 60 60 60 61 61 61 60 60 60 60 60 60 60 60 60 59 59 59 60 60 60 60 61
67 67 68 68 68 69 68 68 68 68 68 68 68 68 68 68 68 68 68 69 69 70 70 70 70 70 69 69 69 69 68 68 68 67 67 67 67 67 67 67 66 66 66 66 66 66 64 57 53 53 53 55 57 58 58 60 60 61 62 65 66 66 65 65 65 65 65 64 64 64 63 63 62 62 61 61 60 60 59 59 59 59 60 60 60 60 60 60 60 60 60 60 60 60 60 60 59 59 59 59 60 60 60
68 68 67 67 68 69 69 69 68 68 68 68 68 68 68 68 68 68 68 68 69 69 69 70 70 70 69 69 69 69 68 68 68 67 67 67 67 67 66 66 66 66 66 66 65 63 60 53 51 51 52 55 57 58 59 60 61 62 63 65 66 66 65 65 65 65 64 64 64 63 63 62 62 62 61 61 60 60 59 59 59 59 59 59 60 60 60 60 60 59 59 60 60 60 60 60 59 59 59 59 59 59 60
68 67 67 67 68 69 69 69 68 68 68 68 68 68 68 68 67 67 67 68 68 69 69 69 69 69 69 69 69 68 68 68 68 67 67 67 67 67 66 66 66 66 66 65 62 58 53 52 51 51 52 54 56 58 60 60 62 63 64 64 65 65 65 65 65 65 64 64 64 63 63 62 62 62 61 61 60 59 59 59 58 58 59 59 59 60 59 59 59 59 59 59 59 59 59 59 59 59 59 59 59 59 59
67 66 67 68 69 69 69 69 69 68 68 68 68 68 68 68 67 67 67 67 68 68 69 69 69 69 69 69 69 68 68 68 67 67 67 67 67 66 66 65 65 65 65 64 59 55 53 52 52 52 53 54 55 57 59 60 62 64 66 64 64 65 65 65 65 65 64 64 64 63 63 62 62 62 61 60 60 59 59 58 58 58 58 58 59 60 59 59 59 59 59 59 59 59 59 59 59 59 58 59 59 60 60
65 66 67 68 69 69 69 69 69 68 68 68 68 68 68 67 67 67 67 67 67 67 68 68 69 69 69 69 68 68 67 67 67 67 67 67 66 66 65 65 65 64 64 61 57 54 53 52 52 53 53 53 54 56 58 59 62 65 66 65 64 64 65 65 65 65 64 64 64 63 63 62 62 61 61 60 60 59 59 58 58 58 58 58 59 59 60 59 59 59 59 58 58 58 59 59 58 58 58 59 59 60 60
64 65 67 68 69 69 69 69 69 69 69 68 68 68 68 67 67 67 66 66 66 67 67 67 68 68 68 68 68 67 66 66 66 67 66 66 66 65 65 65 64 63 61 57 55 54 53 53 53 53 53 53 53 55 57 59 62 65 66 65 64 64 64 65 65 65 64 64 64 63 62 62 62 61 61 60 60 59 58 58 58 58 58 58 58 59 60 59 59 59 59 58 58 58 58 58 58 58 58 59 59 60 61
65 66 68 68 68 69 69 69 69 69 69 69 69 68 68 68 67 67 66 66 65 66 66 67 67 67 67 67 67 65 63 63 64 64 65 65 65 65 65 64 63 62 58 56 54 54 53 53 53 53 53 53 53 54 56 59 62 65 65 65 65 64 64 64 65 65 64 64 63 63 62 62 62 61 61 60 60 59 58 58 58 58 58 58 58 59 59 59 59 59 58 58 58 58 58 58 58 58 58 58 59 60 61
65 67 68 68 68 68 69 69 69 69 69 69 69 68 68 68 67 67 67 66 65 65 65 65 66 66 67 67 65 63 60 61 61 62 62 63 63 63 63 62 61 59 57 55 54 54 54 53 53 53 52 52 53 54 55 59 63 65 65 65 65 65 64 64 64 64 64 64 63 63 62 62 61 61 60 60 59 59 58 58 58 57 57 58 58 59 59 59 59 58 58 58 58 58 58 58 58 58 58 58 59 60 60
65 67 68 68 68 68 68 68 68 69 69 69 68 68 68 68 67 67 67 66 66 65 65 65 64 64 66 64 62 60 58 59 59 60 60 60 61 61 60 60 58 57 56 54 54 54 54 53 53 53 52 52 53 53 54 60 63 65 64 64 64 65 64 64 63 63 63 63 63 62 62 62 61 61 60 60 59 58 58 58 57 57 57 57 58 58 59 59 59 58 58 58 58 58 58 58 58 58 58 58 58 59 59
64 65 66 67 67 67 67 67 67 67 67 68 67 66 66 67 67 67 67 66 66 66 65 64 62 60 61 59 58 57 56 57 58 58 58 58 58 58 58 58 57 56 55 55 54 54 54 53 53 53 52 52 52 53 53 60 64 65 64 64 64 64 64 64 63 63 62 62 62 62 62 61 61 60 60 59 59 58 58 57 57 57 57 57 57 58 59 59 58 58 58 58 58 58 58 58 58 58 58 58 58 58 58
63 63 63 64 65 65 64 64 64 65 65 67 65 62 62 63 65 65 66 64 64 64 64 62 60 58 58 57 56 56 55 55 55 55 56 56 56 57 57 56 56 55 55 54 54 54 54 54 54 53 53 52 52 53 54 61 64 65 64 63 63 63 64 64 63 62 62 62 62 62 62 61 61 60 60 59 58 58 58 57 57 56 56 57 57 58 58 58 58 58 58 58 58 58 58 58 58 57 57 58 58 58 58
62 62 62 62 62 63 63 62 62 62 62 64 63 62 60 61 62 62 62 61 60 60 60 59 58 58 58 57 56 56 55 55 55 54 54 54 54 54 54 54 54 54 54 54 54 54 54 54 54 54 53 52 52 53 55 62 64 64 64 63 63 63 63 63 63 63 62 62 62 62 61 61 60 60 59 59 58 58 57 57 56 56 56 56 57 57 58 58 58 58 58 57 57 57 57 57 57 57 57 58 58 58 58
62 62 61 61 61 61 62 61 61 61 61 62 61 60 59 59 59 60 60 59 59 58 58 58 58 58 58 57 57 56 56 56 56 55 54 54 53 53 53 53 53 53 53 53 54 54 55 55 54 54 54 53 53 53 55 61 63 64 63 63 63 62 62 63 63 63 62 62 62 62 61 61 60 59 59 58 58 58 57 57 56 56 56 56 56 57 57 57 58 58 57 57 57 57 57 57 57 57 57 57 58 58 58
62 62 61 60 60 60 60 60 60 61 61 59 59 58 58 58 58 58 58 58 58 58 58 57 58 58 57 57 57 56 56 56 55 55 54 54 53 53 53 53 52 52 52 53 53 54 55 55 54 54 54 53 53 53 56 61 63 63 63 63 62 62 62 62 62 63 62 62 62 62 61 61 60 59 59 58 58 58 57 57 56 56 55 56 56 56 56 57 57 57 57 57 57 56 57 57 56 56 56 57 57 58 58
62 62 61 61 60 60 60 60 60 61 61 59 58 58 58 57 57 58 58 58 58 58 58 58 58 58 57 56 56 56 56 56 55 55 54 54 54 53 53 53 52 52 51 51 52 53 53 54 54 54 54 53 53 54 56 61 63 63 63 62 62 62 62 62 62 62 62 62 62 62 61 61 60 59 58 58 58 58 57 56 56 56 55 55 56 56 56 56 57 57 57 57 56 56 56 56 56 56 56 56 57 57 57
62 62 61 61 61 61 61 60 61 61 60 60 60 59 58 57 57 57 57 57 57 57 57 57 57 57 56 56 55 55 55 55 55 55 54 54 54 53 53 53 53 52 52 51 51 51 52 52 53 53 53 53 53 53 54 59 62 62 62 62 62 62 62 62 62 61 62 62 62 62 61 61 60 59 59 58 58 58 57 56 56 55 55 55 55 56 56 56 56 57 57 57 56 56 56 56 56 55 55 56 56 56 57
62 62 61 61 62 62 61 61 61 61 61 61 60 59 58 57 57 58 57 57 57 56 56 56 56 56 56 56 55 55 54 54 54 54 54 54 54 53 53 53 53 53 53 52 51 50 50 51 52 52 53 53 53 53 53 58 61 62 62 62 62 62 62 62 62 61 61 61 61 61 61 61 60 60 59 58 58 57 57 56 56 55 55 55 56 56 56 56 56 56 57 57 56 56 55 55 55 55 55 55 56 56 56
62 61 61 61 61 61 61 61 61 62 62 61 60 59 59 58 58 58 57 57 56 56 56 55 55 55 55 55 55 54 54 54 53 53 53 54 54 53 53 53 53 53 53 53 52 50 50 50 50 51 52 52 52 53 53 56 59 62 62 62 62 62 62 62 61 61 60 60 60 61 61 61 61 60 59 58 58 58 57 56 56 55 55 55 56 56 56 56 56 56 57 57 56 56 55 55 55 55 54 55 55 56 56
61 61 61 60 59 59 60 60 61 61 61 62 61 59 59 58 58 58 58 57 57 56 56 55 55 54 54 54 53 53 54 54 54 53 53 53 53 53 53 53 53 53 53 53 52 52 50 50 50 50 51 51 52 52 52 54 57 60 61 61 61 61 61 61 61 61 61 60 60 60 60 61 61 60 59 59 58 58 57 57 56 56 55 55 56 56 57 56 56 56 57 57 57 56 55 55 55 54 54 54 55 55 56
61 61 61 60 59 58 58 59 59 60 60 61 61 60 60 59 59 58 58 58 57 57 55 55 54 54 54 53 53 53 53 54 54 53 53 53 53 53 53 53 53 53 53 53 53 53 52 50 50 50 51 51 51 51 52 53 55 58 61 61 61 61 61 61 61 61 61 61 60 60 59 59 60 60 60 59 58 58 58 57 57 56 56 56 56 56 57 57 57 57 57 57 57 56 56 55 55 54 54 54 54 55 55
61 61 61 60 59 58 58 58 58 58 59 60 60 60 60 60 60 59 59 58 58 57 56 55 55 55 55 55 54 54 54 55 54 53 52 52 52 52 52 52 52 52 52 53 53 53 53 51 50 49 49 50 51 51 52 52 53 55 59 61 61 61 61 61 62 62 62 61 60 60 59 59 59 59 60 59 59 58 58 57 57 56 56 56 56 56 56 57 57 57 57 57 57 57 56 56 55 55 54 53 53 54 55
60 60 60 59 58 57 58 58 58 58 58 59 60 60 60 60 60 60 60 59 58 58 57 57 56 56 56 56 56 56 56 55 54 53 52 52 51 51 51 51 51 51 51 52 52 53 53 52 51 50 49 50 50 50 51 51 51 53 56 59 61 61 61 61 62 62 62 61 61 60 59 59 59 59 59 59 59 59 58 58 57 57 56 56 56 56 56 57 57 58 58 58 58 57 57 56 56 55 55 54 53 54 55
60 60 59 58 57 57 57 57 57 58 58 59 59 60 60 60 60 60 59 59 58 58 58 59 58 58 58 58 57 57 57 56 55 53 52 51 51 50 50 50 50 50 50 50 51 52 52 52 52 51 51 50 50 50 50 51 51 52 53 56 58 60 61 61 61 62 62 62 61 60 60 59 59 59 59 60 59 59 59 58 58 57 57 56 56 56 56 57 57 57 58 58 58 58 58 57 56 56 55 54 54 53 54
60 59 58 57 56 56 56 57 57 57 58 59 59 59 59 59 59 59 59 59 58 58 58 59 58 58 58 58 58 57 56 55 55 53 53 51 51 50 50 50 49 49 49 49 50 51 51 52 52 52 52 51 51 51 51 51 51 52 53 55 57 58 61 61 61 61 62 62 61 61 60 59 59 59 59 59 60 60 59 59 58 58 57 57 56 56 56 57 57 57 58 58 58 58 58 58 57 57 56 55 54 54 54
60 58 57 56 56 56 57 57 57 57 58 58 58 58 58 58 58 58 59 58 58 58 58 58 58 58 58 58 57 56 56 55 55 54 53 52 51 51 50 50 49 49 49 49 49 50 50 51 51 51 51 51 52 52 52 52 52 52 52 53 55 57 58 59 60 61 61 62 61 61 61 60 60 59 59 59 60 60 60 59 59 58 58 57 57 57 57 57 57 58 58 58 58 58 58 58 58 57 57 56 55 54 54
59 58 57 56 56 57 57 57 58 58 57 58 58 58 58 58 58 58 58 57 57 57 57 58 58 58 58 58 57 57 56 56 56 55 54 53 53 52 51 50 49 49 49 49 50 50 50 50 51 51 51 51 51 52 52 52 52 52 52 53 53 54 55 55 56 58 60 61 62 62 62 61 60 60 59 59 60 60 60 60 59 59 58 58 57 57 57 57 58 58 58 58 58 59 59 59 58 58 57 57 56 55 55
58 58 57 57 57 57 57 58 58 58 58 58 58 58 58 58 58 58 58 57 57 57 57 58 58 58 58 58 57 57 57 56 56 55 54 54 53 53 52 51 50 49 49 49 50 51 50 50 50 50 50 51 51 51 51 51 51 51 51 52 52 53 53 53 53 53 57 59 61 62 62 62 61 60 60 60 60 60 60 60 60 59 59 58 58 58 58 58 58 58 58 59 59 59 59 59 59 59 58 58 57 56 55
58 57 57 57 57 58 58 58 59 59 59 59 59 59 58 58 58 58 58 58 58 58 58 58 58 58 58 58 57 57 57 56 56 55 54 54 53 53 53 52 51 50 50 50 50 51 51 50 50 50 50 50 50 50 50 50 50 49 49 50 50 51 52 52 52 52 53 56 58 60 62 62 62 62 61 60 60 60 60 60 60 59 59 58 58 58 58 58 58 58 59 59 59 59 60 60 60 59 59 58 58 57 56
58 57 57 57 58 58 58 59 59 60 60 59 59 59 59 59 59 59 58 58 58 58 58 58 58 58 58 58 57 57 57 56 56 55 55 54 53 53 53 53 53 52 52 51 51 51 51 51 51 51 51 51 50 50 50 49 49 48 48 48 49 49 50 51 52 52 51 53 55 58 61 62 62 62 62 61 61 60 60 60 60 60 59 59 58 58 58 58 58 58 58 58 59 60 60 60 60 60 60 59 58 58 57
58 58 58 58 58 58 58 59 59 60 60 60 60 60 60 60 59 59 59 58 58 58 58 58 58 58 57 58 57 57 57 57 56 55 55 54 54 53 53 53 53 53 53 53 52 52 52 52 51 51 51 51 50 50 49 49 48 48 48 48 48 49 50 51 52 52 50 51 52 54 58 61 62 62 62 62 61 61 61 61 61 61 60 59 59 58 58 58 57 57 57 58 58 59 59 60 61 61 61 60 60 59 58
58 58 58 58 58 58 58 59 59 60 60 60 60 60 60 60 60 60 59 59 59 58 58 58 58 58 57 58 58 57 57 57 57 56 56 55 55 54 54 54 54 53 53 53 53 53 53 53 52 52 52 51 50 50 49 49 49 49 49 49 49 50 51 52 52 52 51 50 49 51 54 59 61 62 62 62 62 62 62 62 62 62 62 60 59 58 58 58 57 57 57 57 57 58 58 59 60 61 62 61 61 60 59
58 58 58 58 58 58 59 59 59 59 60 59 59 59 59 60 60 60 60 59 59 59 59 59 58 58 58 58 58 58 57 57 57 57 57 56 56 56 55 55 55 54 54 54 53 53 53 53 53 53 53 52 51 51 51 52 52 52 52 52 52 52 52 52 52 52 51 50 49 49 51 56 60 61 61 62 62 62 62 62 62 62 62 61 60 59 58 58 57 57 56 56 56 56 57 58 59 60 61 61 61 61 60
58 58 58 58 58 58 59 59 59 60 60 59 59 59 59 59 59 59 59 59 59 59 59 59 59 59 58 58 58 58 57 57 57 57 58 57 57 57 57 57 56 56 56 55 54 54 53 54 54 54 53 53 52 53 53 53 53 53 53 53 53 53 53 53 53 52 52 51 50 49 49 52 56 59 61 61 61 61 62 62 62 62 62 61 60 59 58 58 58 57 57 57 56 56 56 57 58 58 60 60 61 61 60
58 58 58 58 58 58 59 59 60 60 61 60 59 59 59 59 59 59 59 60 60 59 59 59 59 59 59 58 58 58 58 58 58 58 58 58 58 58 58 57 57 57 57 56 56 55 55 55 55 54 53 53 53 53 54 55 55 55 54 54 53 53 53 53 53 53 52 52 51 50 50 51 51 53 56 58 58 58 59 60 61 61 61 61 60 59 58 58 58 58 58 57 57 57 56 56 57 57 58 59 60 60 60
58 58 58 58 58 58 59 60 60 61 61 60 60 59 59 59 59 59 59 59 59 59 59 58 59 59 59 59 58 58 58 58 58 58 58 58 58 58 58 57 57 57 57 57 57 56 56 56 55 54 54 53 54 54 55 56 56 55 55 55 54 54 53 53 53 53 52 52 51 51 53 52 50 49 51 52 53 53 55 58 59 60 61 61 60 60 59 59 58 58 58 58 58 57 57 56 56 57 57 58 58 59 59
58 58 58 58 58 58 59 60 61 62 62 61 60 60 59 59 59 59 59 59 59 59 59 58 58 58 59 59 59 58 58 58 58 58 58 58 58 58 58 58 57 57 57 57 57 57 57 56 56 55 54 54 54 55 55 56 56 55 55 55 54 54 53 53 53 52 52 52 52 51 51 51 49 49 48 49 49 49 50 54 58 60 60 60 60 60 60 60 59 59 58 58 58 58 57 57 56 56 56 57 58 58 58
58 58 58 58 58 58 59 60 61 62 62 61 60 60 59 59 59 59 59 59 59 59 59 59 58 58 58 58 58 58 58 58 58 58 58 58 58 58 58 58 58 57 57 57 57 57 57 56 55 55 54 54 54 54 55 55 55 54 54 54 53 53 53 53 53 52 52 52 51 51 50 49 49 48 48 47 47 47 47 49 54 58 60 60 60 60 60 60 60 59 59 58 58 58 58 57 57 56 56 56 57 57 58
59 59 59 59 59 59 60 60 61 62 62 61 61 60 60 59 59 59 59 59 59 59 59 59 59 58 58 58 58 58 58 58 58 58 58 57 57 57 58 58 57 57 57 57 57 57 57 56 55 55 54 54 54 54 54 53 53 53 53 52 52 52 52 52 52 51 51 51 50 50 49 49 48 48 47 47 47 46 46 47 49 53 58 59 60 60 60 60 60 60 59 59 58 58 58 58 57 57 56 56 56 56 57
59 59 59 59 59 59 59 60 61 61 62 62 61 60 60 60 60 60 59 59 59 59 59 60 59 59 58 58 58 58 58 58 58 58 58 57 57 56 55 55 55 54 55 56 56 56 56 55 55 54 54 54 53 53 53 52 52 51 51 50 50 50 50 50 50 50 50 49 49 48 48 48 47 47 47 47 47 46 46 46 47 48 51 54 56 58 58 59 59 59 59 59 58 58 58 58 58 57 57 56 56 56 56
60 59 59 60 60 60 60 60 60 61 62 61 61 60 60 60 60 60 59 59 59 59 59 59 59 59 59 58 58 58 58 58 58 58 57 57 57 56 55 54 54 54 53 54 55 56 56 55 54 54 54 53 53 53 52 51 51 50 49 49 49 49 49 49 49 49 48 47 47 47 47 47 47 47 47 46 46 46 46 46 46 46 46 47 49 52 54 55 57 58 59 58 58 58 58 58 58 58 57 57 56 56 56
60 60 60 60 60 60 61 61 61 61 61 61 61 60 60 60 60 60 60 59 59 59 59 59 59 59 59 59 58 58 58 58 58 58 57 57 57 57 57 56 54 53 52 51 52 53 55 55 54 54 53 53 52 52 51 51 50 49 49 49 49 48 48 48 48 47 46 45 45 45 45 46 46 46 46 46 45 45 45 45 45 45 45 46 47 49 50 52 53 56 58 58 58 58 59 58 58 58 57 57 56 56 56
61 61 61 60 60 61 62 61 61 61 61 61 60 60 60 60 60 60 60 59 59 59 59 59 58 58 58 58 58 58 58 58 58 58 58 57 57 57 57 56 53 51 49 49 49 50 51 50 51 53 53 53 52 52 51 50 49 49 49 48 48 48 47 47 46 45 44 44 44 44 44 44 44 44 45 44 45 45 45 44 44 44 45 45 47 48 48 49 51 53 55 57 58 58 58 58 58 57 57 57 57 56 56
61 61 61 61 61 61 61 61 61 61 61 61 61 60 60 59 59 59 59 59 59 59 59 58 58 58 58 58 58 58 58 58 58 58 58 58 57 56 55 54 53 52 53 52 51 49 48 48 48 49 53 53 53 52 51 50 49 49 49 48 48 48 47 46 45 44 43 43 43 42 42 42 43 44 44 44 44 44 44 44 44 44 44 45 47 48 48 48 50 53 53 53 54 55 56 57 57 57 57 57 57 57 56
61 61 61 61 61 61 61 61 61 61 61 62 61 61 60 59 59 59 59 59 58 58 58 58 58 58 58 58 58 58 58 58 58 58 58 58 58 57 56 54 53 53 53 53 51 49 47 48 49 51 52 52 52 51 51 50 50 50 50 49 48 47 46 45 44 44 44 44 43 42 41 41 42 43 43 43 43 43 42 43 43 43 44 44 45 45 46 48 50 51 51 51 52 53 53 55 55 56 56 57 57 57 57
61 61 61 61 61 61 61 61 61 61 61 61 61 61 60 60 59 59 59 59 59 59 58 58 58 58 58 58 58 58 58 58 58 58 58 58 58 58 58 56 54 52 51 50 49 48 48 50 52 53 53 51 50 51 51 51 50 50 50 49 48 47 46 45 44 44 44 44 43 42 42 42 41 41 41 42 42 43 44 43 43 43 43 44 44 44 45 46 46 48 49 49 51 52 53 54 55 55 56 56 57 57 57
61 61 61 61 61 61 61 61 61 61 61 61 61 61 60 60 60 59 59 59 59 59 59 59 59 59 59 59 59 59 59 58 58 58 59 58 58 58 58 58 56 54 52 50 50 51 52 53 53 53 52 52 51 51 52 50 50 49 49 49 48 47 46 45 44 44 44 44 43 42 42 42 42 41 41 42 43 43 43 44 44 44 44 45 45 45 46 46 46 47 47 48 50 52 54 54 53 53 54 54 55 55 56
61 61 61 61 61 61 61 61 61 61 61 61 61 61 61 60 60 60 59 59 59 59 59 59 59 59 59 60 60 60 59 59 59 59 58 59 58 58 58 58 58 58 56 56 56 56 55 55 54 53 52 53 53 53 50 50 50 50 49 49 49 48 46 45 44 44 44 44 43 42 41 42 42 41 42 43 43 44 44 44 45 46 47 47 47 46 46 46 46 46 46 46 47 49 52 51 51 51 52 53 53 54 55
61 61 61 61 61 61 61 61 61 61 61 61 61 61 61 60 60 60 60 60 60 60 60 60 60 60 60 60 61 60 59 59 59 59 58 58 58 58 58 58 58 58 58 58 58 58 57 56 55 55 55 54 54 54 53 52 52 52 51 49 48 47 46 46 45 44 43 43 43 42 42 42 43 43 43 44 44 45 45 46 47 48 49 48 48 47 47 47 48 48 49 49 49 49 49 49 49 49 50 51 52 53 54
61 61 61 61 61 61 61 61 61 62 62 61 61 61 61 60 60 60 61 61 61 61 61 61 60 60 60 60 60 60 59 59 60 60 59 58 58 58 58 58 57 57 57 57 57 57 57 57 57 57 57 56 55 55 54 54 54 53 53 50 49 47 46 47 47 45 44 44 44 44 44 43 43 43 44 45 46 47 48 49 49 49 50 49 48 47 47 47 48 49 49 50 51 50 48 48 48 48 49 49 50 52 53
61 61 61 61 61 62 62 62 62 62 62 62 61 62 61 61 61 61 61 61 62 62 62 62 61 61 61 61 61 61 61 60 60 60 60 59 58 58 58 58 57 57 57 57 57 57 57 58 58 58 58 57 57 56 55 55 54 54 53 52 50 49 49 49 48 46 45 45 45 45 45 44 44 45 45 46 47 48 49 49 50 50 49 48 47 47 47 47 47 47 48 48 49 49 48 47 47 47 47 49 49 50 52